AO-07 1 07530U 74089B 15189.85897966 -.00000022 00000-0 13331-3 0 9994 2 07530 101.5218 164.7568 0011461 261.2238 128.3200 12.53615263859977 FO-29 1 24278U 96046B 15190.49245392 -.00000022 00000-0 14144-4 0 9995 2 24278 098.5420 156.2683 0350776 013.1688 092.7766 13.53054554933040 SO-33 1 25509U 98061B 15190.14080543 .00000309 00000-0 46471-4 0 9994 2 25509 031.4335 127.0363 0348081 265.8609 090.2167 14.30017558872561 RS-22 1 27939U 03042A 15190.46368036 .00000544 00000-0 10742-3 0 9991 2 27939 097.8447 351.3683 0012477 322.0696 037.9634 14.66090095629457 HO-68 1 36122U 09072B 15190.43707456 -.00000059 00000-0 -43517-4 0 9994 2 36122 100.1922 234.4485 0008179 068.8444 291.3544 13.16328177267383 AO-73 1 39444U 13066AE 15189.72531038 .00001937 00000-0 25288-3 0 9991 2 39444 097.7293 251.6920 0061160 066.2962 294.4651 14.80316907 86603 EO-79 1 40025U 14033R 15190.28478051 .00001642 00000-0 18834-3 0 9993 2 40025 097.9504 090.5807 0014267 109.5819 250.6939 14.87216150 57088 UO-11 1 14781U 84021B 15189.76819159 .00000709 00000-0 94814-4 0 9992 2 14781 097.8001 246.3179 0008700 010.7746 349.3652 14.82442527685224 AO-16 1 20439U 90005D 15189.45404125 .00000114 00000-0 57972-4 0 9991 2 20439 098.5408 125.3375 0012055 096.8254 022.2844 14.32554369329780 LO-19 1 20442U 90005G 15189.43381405 .00000106 00000-0 54823-4 0 9991 2 20442 098.5117 124.8106 0013047 085.9842 274.2833 14.32746195329980 AO-27 1 22825U 93061C 15190.10791847 .00000115 00000-0 61971-4 0 9996 2 22825 098.7097 140.2246 0007336 241.4993 182.4255 14.29890784136077 IO-26 1 22826U 93061D 15189.79741875 .00000115 00000-0 61639-4 0 9997 2 22826 098.7041 140.0788 0007930 233.4775 126.5677 14.30208535136172 GO-32 1 25397U 98043D 15190.47121391 .00000052 00000-0 41354-4 0 9992 2 25397 098.5209 140.2163 0000114 209.8489 289.2322 14.23552305882965 NO-44 1 26931U 01043C 15189.47859486 .00000102 00000-0 70995-4 0 9991 2 26931 067.0515 122.1718 0005806 270.2311 089.8125 14.30326392718848 SO-50 1 27607U 02058C 15190.34668825 .00000763 00000-0 12860-3 0 9991 2 27607 064.5550 131.1343 0082159 284.0411 075.1568 14.74779185674552 CO-55 1 27844U 03031E 15190.52075058 .00000235 00000-0 12647-3 0 9993 2 27844 098.6950 198.7287 0008638 232.1747 280.0554 14.21820519623612 CO-57 1 27848U 03031J 15190.47661375 .00000201 00000-0 11184-3 0 9992 2 27848 098.7047 198.6042 0008492 240.6579 276.6820 14.21464992623512 AO-51 1 28375U 04025K 15190.10322885 .00000169 00000-0 63177-4 0 9995 2 28375 098.2930 129.9192 0081433 263.3751 095.8164 14.41677157579644 CP3 1 31129U 07012N 15189.84414126 .00000701 00000-0 16086-3 0 9992 2 31129 097.9821 154.6694 0095118 246.0648 143.1068 14.55867272436275 CO-65 1 32785U 08021C 15190.46440249 .00001468 00000-0 16982-3 0 9993 2 32785 097.6475 233.2054 0013290 000.1638 112.0716 14.86941847389546 PRISM 1 33493U 09002B 15190.40610873 .00002476 00000-0 24131-3 0 9991 2 33493 098.2490 028.8938 0014706 257.5206 102.4376 14.93409373349898 SOHLA-1 1 33496U 09002E 15190.40741286 .00000419 00000-0 75926-4 0 9991 2 33496 098.2149 318.4805 0007659 093.5153 313.3305 14.71387140346447 TISAT-1 1 36799U 10035E 15190.32237001 .00002488 00000-0 27272-3 0 9992 2 36799 098.0169 290.9569 0014158 131.4111 264.5742 14.88620535270258 STUDSAT 1 36801U 10035G 15189.43018890 .00018987 00000-0 10787-2 0 9992 2 36801 098.0630 310.0596 0006633 079.7308 320.4380 15.12944021271180 ALMASAT-1 1 38078U 12006B 15190.44851542 .00019233 34254-5 32172-3 0 9993 2 38078 069.4563 184.2612 0478113 226.8397 129.1867 14.79877446178339 CUBEBUG-1 1 39153U 13018D 15190.27120265 .00001351 00000-0 18832-3 0 9990 2 39153 098.0172 274.5726 0017428 177.2438 182.8872 14.79287750118744 ESTCUBE-1 1 39161U 13021C 15190.44140059 .00000734 00000-0 12715-3 0 9993 2 39161 098.0700 273.1735 0008277 240.0846 119.9555 14.71211329116512 DUCHIFAT-1 1 40021U 14033M 15190.43142173 .00002205 00000-0 24517-3 0 9990 2 40021 097.9519 091.0989 0015014 109.1590 251.1253 14.88130336 57111 NANOSATCBR1 1 40024U 14033Q 15190.29333767 .00002160 00000-0 24289-3 0 9994 2 40024 097.9505 090.7299 0014157 108.8571 251.4181 14.87701434 57082 DTUSAT-2 1 40030U 14033W 15190.45027150 .00001752 00000-0 20235-3 0 9998 2 40030 097.9492 090.4706 0013779 102.7685 257.5071 14.86841686 57091 ANTELSAT 1 40034U 14033AA 15190.32691562 .00001166 00000-0 18501-3 0 9994 2 40034 097.9420 081.8838 0061359 049.3418 311.3100 14.72773178 56550 MET-2/21 1 22782U 93055A 15189.63697097 .00000007 00000-0 -66012-5 0 9992 2 22782 082.5477 226.6478 0020954 260.3324 214.0623 13.83771358103560 OKEAN-4 1 23317U 94066A 15190.17769036 .00000998 00000-0 10916-3 0 9992 2 23317 082.5376 064.7778 0018555 256.3390 220.4116 14.86731792120579 NOAA-14 1 23455U 94089A 15190.48760688 .00000013 00000-0 29721-4 0 9991 2 23455 098.7517 271.4811 0009797 023.3863 046.5510 14.14046684 58685 NOAA-15 1 25338U 98030A 15190.47511733 .00000193 00000-0 10012-3 0 9998 2 25338 098.7729 189.1262 0011803 102.5505 257.6995 14.25641377892018 RESURS 1 25394U 98043A 15189.84367968 -.00000033 00000-0 40790-5 0 9994 2 25394 098.4664 144.1466 0001190 155.8986 256.6405 14.24458554883369 FENGYUN1 1 25730U 99025A 15189.83765098 .00002067 00000-0 11198-2 0 9999 2 25730 098.9429 154.6902 0022450 082.0449 334.3605 14.13460560832116 OKEAN-0 1 25860U 99039A 15189.80692905 .00000619 00000-0 97284-4 0 9994 2 25860 098.0956 157.8929 0000902 094.2941 326.1549 14.76079760859178 NOAA-16 1 26536U 00055A 15190.46951065 .00000034 00000-0 41991-4 0 9999 2 26536 098.9412 256.4259 0010859 164.3308 195.8201 14.13101567762806 NOAA-17 1 27453U 02032A 15190.47955388 .00000067 00000-0 46069-4 0 9995 2 27453 098.3411 175.3739 0012858 114.7512 245.5007 14.24890705677833 NOAA-18 1 28654U 05018A 15190.45096134 .00000139 00000-0 10100-3 0 9995 2 28654 099.1846 183.6375 0013209 257.7447 102.2244 14.12215740522212 NOAA-19 1 33591U 09005A 15190.48829671 .00000186 00000-0 12603-3 0 9996 2 33591 098.9909 140.4217 0015091 105.7115 254.5722 14.11953905330632 HUBBLE 1 20580U 90037B 15189.90115618 .00002174 00000-0 12821-3 0 9990 2 20580 028.4708 010.9319 0003157 108.6015 038.0716 15.07532020183097 ISS 1 25544U 98067A 15190.78158476 .00012114 00000-0 17971-3 0 9999 2 25544 051.6457 331.1776 0003244 138.6449 018.2934 15.55655733951553 CO-58 1 28895U 05043F 15190.01287459 .00000876 00000-0 18003-3 0 9992 2 28895 097.8216 016.6444 0016012 224.5798 135.4118 14.62827522516788 FALCON 1 30776U 07006E 15190.18515534 .00007026 00000-0 27922-3 0 9994 2 30776 035.4264 223.2063 0001781 182.6883 229.2048 15.24684130459650 MAST 1 31126U 07012K 15189.91984230 .00000485 00000-0 11458-3 0 9992 2 31126 097.9620 156.9682 0089761 227.5397 193.9947 14.56089091436650 CAPE1 1 31130U 07012P 15189.83681472 .00000613 00000-0 14286-3 0 9995 2 31130 097.9837 154.1278 0095798 248.0659 111.0335 14.55538873436032 COMPASS 1 32787U 08021E 15190.08869104 .00003160 00000-0 32595-3 0 9997 2 32787 097.6497 237.0860 0012490 347.8580 012.2336 14.90842125389775 AAUSAT2 1 32788U 08021F 15189.79902675 .00002914 00000-0 29333-3 0 9997 2 32788 097.6504 238.3555 0011847 345.3665 014.7209 14.91891575389828 DO-64 1 32789U 08021G 15190.13191446 .00007809 00000-0 62851-3 0 9994 2 32789 097.6753 249.9119 0010411 337.3046 079.7991 15.00193807390374 CO-66 1 32791U 08021J 15190.06815248 .00002492 00000-0 27101-3 0 9994 2 32791 097.6492 234.8470 0013506 354.1142 005.9914 14.88868337389570 RS-30 1 32953U 08025A 15190.44986682 .00000010 00000-0 -13620-7 0 9991 2 32953 082.5030 320.3935 0019172 034.7842 325.4485 12.43061616323374 METEOR-M 1 35865U 09049A 15190.53800387 .00000078 00000-0 54092-4 0 9998 2 35865 098.4991 230.0824 0003464 064.8453 062.3358 14.22036984301386 RS-38 1 35869U 09049E 15190.33109608 .00000044 00000-0 38699-4 0 9996 2 35869 098.4883 229.4998 0005596 054.5316 305.6384 14.22302054301405 JUGNU 1 37839U 11058B 15190.06158221 .00000391 00000-0 66631-4 0 9995 2 37839 019.9622 069.9044 0018939 287.3018 219.9541 14.12476238193318 SRMSAT 1 37841U 11058D 15190.02850817 .00000386 00000-0 67122-4 0 9994 2 37841 019.9722 097.2506 0011875 211.4452 261.7772 14.10486640193037 RAX-2 1 37853U 11061D 15189.82577863 .00006090 00000-0 37244-3 0 9993 2 37853 101.7092 051.5046 0195578 012.3772 115.6091 14.96383750200344 AUBIESAT 1 37854U 11061E 15190.23255296 .00006823 00000-0 40476-3 0 9999 2 37854 101.7162 055.7470 0186178 006.2254 107.6035 14.98558412200523 HRBE 1 37855U 11061F 15189.57104675 .00006427 00000-0 38344-3 0 9990 2 37855 101.7153 053.2928 0194096 011.0825 349.4567 14.97370102200355 HORYU-2 1 38340U 12025D 15190.44423373 .00001534 00000-0 23928-3 0 9994 2 38340 098.3145 160.9484 0012777 031.4389 328.7580 14.74366156168814 RS-40 1 38735U 12041C 15190.41516441 .00000040 00000-0 21992-3 0 9996 2 38735 082.4750 046.1221 0017262 128.9953 231.2669 12.42568955133671 PROITERES 1 38756U 12047B 15190.43701286 .00000498 00000-0 80391-4 0 9996 2 38756 098.2216 290.1016 0011247 222.5062 137.5283 14.75853156152284 BEESAT-3 1 39134U 13015E 15189.90565109 .00007602 00000-0 44092-3 0 9996 2 39134 064.8738 348.0164 0030435 248.6684 111.1190 15.12445192121986 BEESAT-2 1 39136U 13015G 15190.51431113 .00005898 00000-0 36070-3 0 9996 2 39136 064.8744 348.6520 0030842 247.5750 112.2105 15.10779104122037 ZACUBE-1 1 39417U 13066B 15189.70130101 .00001634 00000-0 21703-3 0 9997 2 39417 097.7289 251.4096 0061790 067.2201 293.5524 14.79776954 87819 TRITON-1 1 39427U 13066M 15189.83669081 .00001518 00000-0 25407-3 0 9992 2 39427 097.7135 239.3124 0117269 098.0036 263.4495 14.66694561 87045 DELFIN3XT 1 39428U 13066N 15189.45035584 .00002461 00000-0 41228-3 0 9993 2 39428 097.7137 237.2175 0125853 104.2422 257.2798 14.65459646 86855 GOMX-1 1 39430U 13066Q 15190.37706572 .00001177 00000-0 22525-3 0 9993 2 39430 097.7041 231.8864 0154875 119.6394 242.0332 14.58102229 86615 MO-76 1 39436U 13066W 15190.16996367 .00026024 00000-0 16969-2 0 9991 2 39436 097.7434 266.4637 0021491 033.2256 327.0315 15.07676203 88805 LO-74 1 39440U 13066AA 15189.78124111 .00001590 00000-0 23284-3 0 9992 2 39440 097.7229 246.6396 0083513 078.3986 282.6583 14.74589082 87518 PUCPSAT-1 1 39442U 13066AC 15190.46918200 .00002624 00000-0 28395-3 0 9998 2 39442 097.7381 259.9792 0034147 051.6066 308.8209 14.88689185 87187 SPROUT 1 39770U 14029E 15189.55896570 .00002225 00000-0 27428-3 0 9998 2 39770 097.8719 286.0853 0011162 127.9636 232.2609 14.83873033 60804 POPSAT-HIP1 1 40028U 14033U 15190.39231224 .00001395 00000-0 16139-3 0 9998 2 40028 097.9527 090.7690 0015695 106.4375 253.8549 14.87080725 57086 EO-80 1 40032U 14033Y 15190.46007988 .00001739 00000-0 20124-3 0 9990 2 40032 097.9500 090.4931 0013730 102.8420 257.4330 14.86766182 57092 VELOX-1 1 40057U 14034E 15190.43918519 .00001365 00000-0 20636-3 0 9999 2 40057 098.2146 268.9058 0011913 160.8777 199.2901 14.75900944 55168 DAURIA DX 1 1 40071U 14037C 15190.49964809 .00000643 00000-0 91665-4 0 9996 2 40071 098.3554 262.8327 0009009 160.1518 200.0058 14.80427397 54096 UKUBE-1 1 40074U 14037F 15190.44110361 .00001374 00000-0 17938-3 0 9992 2 40074 098.3564 263.6217 0005328 160.7128 199.4300 14.82262058 54139 HODOYOSHI-1 1 40299U 14070B 15190.41486939 .00003684 00000-0 17635-3 0 9992 2 40299 097.4546 271.6532 0014584 060.2086 070.4638 15.19495334 37193 CHUBUSAT-1 1 40300U 14070C 15190.44393331 .00003883 00000-0 19409-3 0 9993 2 40300 097.4526 270.9048 0023737 059.6703 001.6117 15.17801391 37152 QSAT-EOS 1 40301U 14070D 15190.44002069 .00007685 00000-0 38303-3 0 9997 2 40301 097.4488 270.2295 0033337 059.4187 072.9527 15.17334347 37112 TSUBAME 1 40302U 14070E 15190.40604348 .00004797 00000-0 26791-3 0 9991 2 40302 097.4463 268.9372 0044572 062.4645 298.1123 15.13132431 37033 FIREBIRD FU3 1 40377U 15003B 15190.34368730 .00007492 00000-0 37208-3 0 9995 2 40377 099.1164 227.9169 0157535 180.5759 179.5308 15.07789976 23894 FIREBIRD FU4 1 40378U 15003C 15190.34129200 .00007455 00000-0 36978-3 0 9995 2 40378 099.1163 227.9212 0157757 180.5607 179.5464 15.07804565 23896 GRIFEX 1 40379U 15003D 15190.38867378 .00007133 00000-0 36078-3 0 9999 2 40379 099.1182 227.8706 0158783 181.8288 178.2375 15.07062426 23893 LAMBDA-SAT 1 40458U 98067GB 15136.30676273 .20783109 12527-4 14817-2 0 9995 2 40458 051.6075 233.7697 0010355 318.5347 043.1720 16.39926603 21161 NO-84 1 40654U 15190.28607965 +.00017016 +00000-0 +44324-3 0 00613 2 40654 054.9935 124.7027 0242792 304.8077 053.0319 15.14275403007521 NO-83 1 40655U 15190.29414001 +.00011807 +00000-0 +31428-3 0 00637 2 40655 055.0047 124.8276 0244321 304.5497 053.2700 15.13782581007523 /EX